[[{"header":{"parameterUnit":"m.s-1","parameterCategory":1,"la1":30.2992,"la2":30.254,"lo1":-89.0895,"lo2":-89.0443,"dy":0.0025,"dx":0.0025,"nx":19,"ny":19,"refTime":"2026-04-02T03:00:00:Z","depth":0,"parameterNumber":2,"parameterNumberName":"U-component_of_WINDS"},"data":[0,0,0,-4.9694,-4.9697,-4.98,-4.98,-4.9948,-4.995,0,0,0,0,0,0,0,0,0,0,0,-4.9675,-4.9676,-4.9694,-4.9697,-4.98,-4.98,-4.9948,-4.995,0,0,0,0,0,0,0,0,0,0,0,-4.9674,-4.9676,-4.9677,-4.9698,-4.98,-4.98,-4.9948,-4.9864,0,0,0,0,0,0,0,0,0,0,-4.9761,-4.9754,-4.9675,-4.9678,-4.9698,-4.98,-4.98,-4.986,-4.9869,-4.9909,0,-4.9948,0,-4.9952,-4.9961,-4.9962,0,0,0,-4.9689,-4.9746,-4.9764,-4.9678,-4.9699,-4.98,-4.9751,-4.9865,-4.9876,-4.9922,-4.995,-4.9955,-4.9954,-4.9962,-4.9963,-5.0223,-5.0225,0,0,-4.9683,-4.9699,-4.9757,-4.9772,-4.9758,-4.9748,-4.9754,-4.9871,-4.9903,-4.9951,-4.9959,-4.9957,-4.9963,-4.9964,-5.0222,-5.0224,0,0,0,-4.9672,-4.9695,-4.971,-4.9766,-4.9783,-4.9751,-4.9759,-4.9897,-4.9901,-4.996,-4.9958,-4.9964,-4.9966,-5.022,-5.0222,-5.0316,0,0,0,-4.9668,-4.9689,-4.9708,-4.9719,-4.9782,-4.9842,-4.9783,-4.9893,-4.9906,-4.9958,-4.9964,-4.9968,-5.0218,-5.0221,-5.031,-5.0357,0,0,0,-4.9664,-4.9688,-4.9707,-4.9719,-4.9764,-4.984,-4.985,-4.9895,-4.9905,-4.9962,-4.9968,-5.0217,-5.0221,-5.0304,-5.0347,-5.0429,0,0,0,-4.9664,-4.9789,-4.9709,-4.9848,-4.9764,-4.9898,-4.9849,-4.9948,-5.0008,-4.9965,-5.0218,-5.0222,-5.0302,-5.0342,-5.0423,-5.0499,-5.0532,0,0,-4.983,-4.9809,-4.989,-4.9821,-4.9974,-4.9881,-5.0047,-5.0086,-5.0077,-5.0175,-5.0181,-5.0312,-5.0347,-5.0428,-5.072,-5.0747,0,0,0,-4.9948,-5.0006,-5.0043,-5.0101,-5.0135,-5.0168,-5.0181,-5.0196,-5.0278,-5.0131,-5.0364,-5.0384,-5.0431,-5.0466,-5.0489,-5.0527,-5.024,-5.0239,-5.0239,-5.0203,-5.0186,-5.0318,-5.0313,-5.0371,-5.0384,-5.0428,-5.045,-5.0415,-5.0471,-5.0499,-5.0678,-5.072,-5.0737,-5.0778,-5.054,-5.054,-5.054,-5.054,-5.0443,-5.0522,-5.0474,-5.0585,-5.0566,-5.0658,-5.0677,-5.0649,-5.0732,-5.0656,-5.0696,-5.0612,-5.0767,-5.0802,-5.0547,-5.0546,-5.0545,-5.0545,-5.0544,-5.0607,-5.0641,-5.0658,-5.0741,-5.0807,-5.0799,-5.0881,-5.0861,-5.0843,-5.0883,-5.0909,-5.0908,-5.0902,-5.0898,-5.0898,-5.0899,-5.0899,-5.09,-5.09,-5.0768,-5.0785,-5.0856,-5.0905,-5.0939,-5.0983,-5.0999,-5.1033,-5.1065,-5.1044,-5.1044,-5.1003,-5.0787,-5.0732,-5.091,-5.0908,-5.0907,-5.0906,-5.0905,-5.1013,-5.0955,-5.1066,-5.1101,-5.1156,-5.1223,-5.1198,-5.1269,-5.1294,-5.1335,-5.1287,-5.1131,-5.1108,-5.1089,-5.1043,-5.1291,-5.1291,-5.1291,-5.1291,-5.1149,-5.1136,-5.1245,-5.1303,-5.1358,-5.1347,-5.1472,-5.1486,-5.1491,-5.1506,-5.1468,-5.1406,-5.1388,-5.1375,-5.1351,-5.1307,-5.1617,-5.1617,-5.1617,-5.1298,-5.129,-5.14,-5.1405,-5.1447,-5.1484,-5.1601,-5.1668,-5.1663,-5.163,-5.1516,-5.1502,-5.1403,-5.1371,-5.1333,-5.1295,-5.1215,0,0]},{"header":{"parameterUnit":"m.s-1","parameterCategory":1,"la1":30.2992,"la2":30.254,"lo1":-89.0895,"lo2":-89.0443,"dy":0.0025,"dx":0.0025,"nx":19,"ny":19,"refTime":"2026-04-02T03:00:00:Z","depth":0,"parameterNumber":3,"parameterNumberName":"V-component_of_WINDS"},"data":[0,0,0,2.8908,2.891,2.8975,2.8975,2.9056,2.9057,0,0,0,0,0,0,0,0,0,0,0,2.8888,2.8889,2.8908,2.891,2.8975,2.8975,2.9056,2.9057,0,0,0,0,0,0,0,0,0,0,0,2.8888,2.8889,2.8889,2.891,2.8975,2.8975,2.9056,2.9007,0,0,0,0,0,0,0,0,0,0,2.8944,2.8925,2.8888,2.8889,2.891,2.8975,2.8975,2.9005,2.901,2.9026,0,2.9041,0,2.9051,2.9063,2.9063,0,0,0,2.891,2.8921,2.8939,2.8889,2.8911,2.8975,2.8945,2.9008,2.9014,2.9033,2.9042,2.9045,2.9052,2.9063,2.9063,2.9159,2.9159,0,0,2.8906,2.8899,2.8935,2.8943,2.8934,2.8943,2.8948,2.9012,2.902,2.9042,2.9047,2.9053,2.9064,2.9064,2.9158,2.9159,0,0,0,2.8896,2.8896,2.8914,2.894,2.8952,2.8945,2.895,2.9017,2.9024,2.9048,2.9054,2.9064,2.9065,2.9158,2.9159,2.9176,0,0,0,2.8893,2.8891,2.8912,2.8908,2.8951,2.8986,2.8954,2.9019,2.9027,2.9054,2.9064,2.9066,2.9157,2.9158,2.9174,2.9185,0,0,0,2.8884,2.8889,2.8899,2.8908,2.8936,2.8985,2.8995,2.9021,2.9031,2.9063,2.9066,2.9157,2.9158,2.9173,2.9183,2.921,0,0,0,2.8871,2.8911,2.8899,2.8946,2.8935,2.8995,2.8994,2.9039,2.9068,2.9065,2.9157,2.9158,2.9173,2.9181,2.9208,2.9232,2.9241,0,0,2.8917,2.8916,2.8944,2.8936,2.8997,2.8986,2.9049,2.9081,2.9089,2.9135,2.9137,2.9175,2.9183,2.9209,2.9292,2.93,0,0,0,2.8957,2.8977,2.8995,2.9024,2.9052,2.9076,2.91,2.9113,2.9153,2.9112,2.9192,2.9196,2.9212,2.9224,2.923,2.9245,2.9163,2.9163,2.9163,2.9011,2.9022,2.907,2.909,2.9118,2.9145,2.9169,2.919,2.919,2.9209,2.9222,2.9272,2.9285,2.929,2.9305,2.9235,2.9235,2.9235,2.9235,2.9081,2.9112,2.9115,2.9163,2.9174,2.9214,2.9241,2.924,2.9279,2.9261,2.9276,2.9257,2.9297,2.9311,2.9237,2.9236,2.9236,2.9236,2.9236,2.9118,2.9136,2.9152,2.9198,2.9232,2.9249,2.9288,2.9296,2.9303,2.9317,2.9334,2.9334,2.9336,2.9325,2.9325,2.9325,2.9325,2.9325,2.9326,2.9152,2.917,2.9202,2.9237,2.9258,2.9287,2.9316,2.9337,2.9362,2.9364,2.9365,2.9364,2.9299,2.9284,2.9328,2.9328,2.9327,2.9327,2.9327,2.922,2.9206,2.9256,2.9278,2.9321,2.9355,2.9366,2.9408,2.9427,2.9446,2.9443,2.9393,2.9392,2.9387,2.9374,2.9439,2.9439,2.9439,2.9439,2.9252,2.9253,2.9308,2.9343,2.9377,2.9393,2.9449,2.9472,2.9493,2.9506,2.9497,2.9481,2.9475,2.9477,2.947,2.9458,2.9544,2.9544,2.9544,2.9296,2.9301,2.9348,2.9371,2.9406,2.9435,2.9489,2.9529,2.9549,2.9549,2.9516,2.9511,2.9485,2.9475,2.9473,2.9462,2.9441,0,0]}]]